| time (UTC) | temp F | wind direction | speed MPH | gust MPH | rain 1hr in | rain 24hr in | rain mn in | humidity % | barometer mb |
| 20260507232002 | 101 | 310 | 8.0 | 15.0 | 0.00 | 0.00 | 0.00 | 15 | 1005.7 |
| 20260507231002 | 101 | 303 | 9.0 | 21.0 | 0.00 | 0.00 | 0.00 | 15 | 1005.7 |
| 20260507230003 | 101 | 313 | 3.0 | 10.0 | 0.00 | 0.00 | 0.00 | 14 | 1005.8 |
| 20260507224003 | 100 | 244 | 3.0 | 7.0 | 0.00 | 0.00 | 0.00 | 11 | 1006.0 |
| 20260507223503 | 101 | 193 | 3.0 | 7.0 | 0.00 | 0.00 | 0.00 | 11 | 1006.1 |
| 20260507223003 | 100 | 99 | 3.0 | 7.0 | 0.00 | 0.00 | 0.00 | 12 | 1006.1 |
| 20260507222003 | 101 | 177 | 3.0 | 6.0 | 0.00 | 0.00 | 0.00 | 11 | 1006.3 |
| 20260507221503 | 101 | 245 | 3.0 | 7.0 | 0.00 | 0.00 | 0.00 | 12 | 1006.3 |
| 20260507221003 | 101 | 306 | 2.0 | 5.0 | 0.00 | 0.00 | 0.00 | 14 | 1006.4 |
| 20260507220503 | 100 | 338 | 2.0 | 5.0 | 0.00 | 0.00 | 0.00 | 12 | 1006.5 |
| 20260507220003 | 100 | 124 | 0.0 | 2.0 | 0.00 | 0.00 | 0.00 | 10 | 1006.7 |
| 20260507215503 | 101 | 72 | 3.0 | 7.0 | 0.00 | 0.00 | 0.00 | 12 | 1006.8 |
| 20260507214503 | 101 | 330 | 3.0 | 8.0 | 0.00 | 0.00 | 0.00 | 13 | 1007.0 |
| 20260507214003 | 100 | 297 | 3.0 | 6.0 | 0.00 | 0.00 | 0.00 | 14 | 1007.1 |
| 20260507213502 | 100 | 340 | 4.0 | 8.0 | 0.00 | 0.00 | 0.00 | 14 | 1007.2 |
| 20260507213002 | 99 | 242 | 1.0 | 7.0 | 0.00 | 0.00 | 0.00 | 11 | 1007.4 |
| 20260507212503 | 99 | 198 | 1.0 | 6.0 | 0.00 | 0.00 | 0.00 | 13 | 1007.5 |
| 20260507212002 | 99 | 280 | 2.0 | 7.0 | 0.00 | 0.00 | 0.00 | 13 | 1007.5 |
| 20260507211503 | 99 | 19 | 2.0 | 8.0 | 0.00 | 0.00 | 0.00 | 11 | 1007.5 |
| 20260507211003 | 100 | 209 | 6.0 | 12.0 | 0.00 | 0.00 | 0.00 | 11 | 1007.6 |
| 20260507210502 | 99 | 221 | 5.0 | 9.0 | 0.00 | 0.00 | 0.00 | 11 | 1007.6 |
| 20260507210002 | 99 | 171 | 3.0 | 8.0 | 0.00 | 0.00 | 0.00 | 12 | 1007.8 |
| 20260507205503 | 100 | 147 | 3.0 | 8.0 | 0.00 | 0.00 | 0.00 | 12 | 1007.9 |
| 20260507205003 | 99 | 180 | 2.0 | 8.0 | 0.00 | 0.00 | 0.00 | 12 | 1008.0 |
| 20260507203502 | 98 | 182 | 3.0 | 7.0 | 0.00 | 0.00 | 0.00 | 12 | 1008.0 |
| 20260507203003 | 98 | 122 | 5.0 | 9.0 | 0.00 | 0.00 | 0.00 | 14 | 1008.1 |
| 20260507202502 | 99 | 122 | 5.0 | 9.0 | 0.00 | 0.00 | 0.00 | 15 | 1008.1 |
| 20260507202002 | 97 | 93 | 5.0 | 9.0 | 0.00 | 0.00 | 0.00 | 16 | 1008.2 |
| 20260507201502 | 98 | 161 | 5.0 | 10.0 | 0.00 | 0.00 | 0.00 | 15 | 1008.3 |
| 20260507201002 | 98 | 92 | 6.0 | 12.0 | 0.00 | 0.00 | 0.00 | 18 | 1008.5 |
| 20260507200503 | 97 | 104 | 7.0 | 12.0 | 0.00 | 0.00 | 0.00 | 18 | 1008.6 |
| 20260507200003 | 96 | 110 | 5.0 | 10.0 | 0.00 | 0.00 | 0.00 | 19 | 1008.6 |
| 20260507195002 | 97 | 92 | 5.0 | 10.0 | 0.00 | 0.00 | 0.00 | 18 | 1008.9 |
| 20260507194503 | 96 | 120 | 8.0 | 12.0 | 0.00 | 0.00 | 0.00 | 19 | 1009.0 |
| 20260507194003 | 95 | 111 | 5.0 | 8.0 | 0.00 | 0.00 | 0.00 | 18 | 1009.1 |
| 20260507193503 | 96 | 122 | 5.0 | 12.0 | 0.00 | 0.00 | 0.00 | 19 | 1009.1 |
| 20260507193003 | 95 | 99 | 6.0 | 12.0 | 0.00 | 0.00 | 0.00 | 20 | 1009.2 |
| 20260507192502 | 94 | 122 | 4.0 | 8.0 | 0.00 | 0.00 | 0.00 | 19 | 1009.3 |
| 20260507192002 | 95 | 76 | 5.0 | 9.0 | 0.00 | 0.00 | 0.00 | 19 | 1009.5 |
| 20260507191503 | 94 | 26 | 5.0 | 8.0 | 0.00 | 0.00 | 0.00 | 20 | 1009.6 |
| 20260507191003 | 94 | 77 | 4.0 | 8.0 | 0.00 | 0.00 | 0.00 | 20 | 1009.6 |
| 20260507190004 | 93 | 75 | 5.0 | 8.0 | 0.00 | 0.00 | 0.00 | 23 | 1009.8 |
| 20260507185502 | 92 | 124 | 4.0 | 9.0 | 0.00 | 0.00 | 0.00 | 21 | 1009.9 |
| 20260507185003 | 92 | 134 | 5.0 | 7.0 | 0.00 | 0.00 | 0.00 | 22 | 1010.0 |
| 20260507184504 | 92 | 162 | 4.0 | 7.0 | 0.00 | 0.00 | 0.00 | 23 | 1010.1 |
| 20260507183003 | 90 | 86 | 2.0 | 3.0 | 0.00 | 0.00 | 0.00 | 24 | 1010.2 |
| 20260507182003 | 91 | 107 | 4.0 | 7.0 | 0.00 | 0.00 | 0.00 | 22 | 1010.4 |
| 20260507181503 | 90 | 82 | 2.0 | 6.0 | 0.00 | 0.00 | 0.00 | 22 | 1010.5 |
| 20260507181003 | 90 | 156 | 2.0 | 7.0 | 0.00 | 0.00 | 0.00 | 23 | 1010.5 |
| 20260507180003 | 89 | 123 | 2.0 | 3.0 | 0.00 | 0.00 | 0.00 | 24 | 1010.7 |
| 20260507175503 | 89 | 192 | 2.0 | 3.0 | 0.00 | 0.00 | 0.00 | 27 | 1010.7 |
| 20260507174002 | 88 | 124 | 2.0 | 3.0 | 0.00 | 0.00 | 0.00 | 25 | 1010.7 |
| 20260507173003 | 86 | 232 | 0.0 | 3.0 | 0.00 | 0.00 | 0.00 | 26 | 1010.8 |
| 20260507172502 | 87 | 225 | 1.0 | 2.0 | 0.00 | 0.00 | 0.00 | 27 | 1010.8 |
| 20260507172003 | 86 | 219 | 2.0 | 3.0 | 0.00 | 0.00 | 0.00 | 28 | 1010.9 |
| 20260507171002 | 85 | 149 | 2.0 | 3.0 | 0.00 | 0.00 | 0.00 | 28 | 1011.0 |
| 20260507170503 | 85 | 214 | 2.0 | 3.0 | 0.00 | 0.00 | 0.00 | 29 | 1011.1 |
| 20260507170002 | 84 | 209 | 1.0 | 3.0 | 0.00 | 0.00 | 0.00 | 30 | 1011.1 |
| 20260507165003 | 83 | 207 | 3.0 | 3.0 | 0.00 | 0.00 | 0.00 | 29 | 1011.1 |
| 20260507164502 | 83 | 235 | 2.0 | 3.0 | 0.00 | 0.00 | 0.00 | 30 | 1011.2 |
| 20260507163503 | 83 | 188 | 2.0 | 3.0 | 0.00 | 0.00 | 0.00 | 31 | 1011.2 |
| 20260507163002 | 83 | 243 | 1.0 | 3.0 | 0.00 | 0.00 | 0.00 | 31 | 1011.2 |
| 20260507162503 | 82 | 243 | 2.0 | 3.0 | 0.00 | 0.00 | 0.00 | 30 | 1011.2 |
| 20260507162003 | 82 | 186 | 1.0 | 3.0 | 0.00 | 0.00 | 0.00 | 31 | 1011.2 |
| 20260507161503 | 82 | 175 | 3.0 | 5.0 | 0.00 | 0.00 | 0.00 | 31 | 1011.2 |
| 20260507161002 | 82 | 248 | 3.0 | 5.0 | 0.00 | 0.00 | 0.00 | 32 | 1011.2 |
| 20260507160502 | 81 | 324 | 1.0 | 3.0 | 0.00 | 0.00 | 0.00 | 32 | 1011.2 |
| 20260507160002 | 81 | 237 | 1.0 | 2.0 | 0.00 | 0.00 | 0.00 | 31 | 1011.2 |
| 20260507155503 | 81 | 237 | 1.0 | 2.0 | 0.00 | 0.00 | 0.00 | 32 | 1011.2 |
| 20260507155003 | 81 | 237 | 2.0 | 5.0 | 0.00 | 0.00 | 0.00 | 32 | 1011.3 |
| 20260507154502 | 80 | 282 | 2.0 | 5.0 | 0.00 | 0.00 | 0.00 | 32 | 1011.3 |
| 20260507154004 | 80 | 263 | 4.0 | 7.0 | 0.00 | 0.00 | 0.00 | 31 | 1011.3 |
| 20260507153503 | 80 | 256 | 5.0 | 7.0 | 0.00 | 0.00 | 0.00 | 33 | 1011.3 |
| 20260507153003 | 80 | 252 | 5.0 | 7.0 | 0.00 | 0.00 | 0.00 | 36 | 1011.3 |
| 20260507152003 | 79 | 265 | 2.0 | 7.0 | 0.00 | 0.00 | 0.00 | 36 | 1011.3 |
| 20260507151502 | 79 | 264 | 4.0 | 9.0 | 0.00 | 0.00 | 0.00 | 37 | 1011.3 |
| 20260507151003 | 78 | 254 | 4.0 | 10.0 | 0.00 | 0.00 | 0.00 | 36 | 1011.2 |
| 20260507150503 | 78 | 258 | 6.0 | 9.0 | 0.00 | 0.00 | 0.00 | 38 | 1011.2 |
| 20260507150004 | 77 | 272 | 4.0 | 9.0 | 0.00 | 0.00 | 0.00 | 37 | 1011.3 |
| 20260507145003 | 77 | 264 | 5.0 | 12.0 | 0.00 | 0.00 | 0.00 | 37 | 1011.3 |
| 20260507144502 | 77 | 235 | 5.0 | 9.0 | 0.00 | 0.00 | 0.00 | 37 | 1011.3 |
| 20260507144003 | 76 | 250 | 6.0 | 9.0 | 0.00 | 0.00 | 0.00 | 37 | 1011.3 |
| 20260507143503 | 76 | 254 | 5.0 | 10.0 | 0.00 | 0.00 | 0.00 | 37 | 1011.3 |
| 20260507142502 | 75 | 244 | 4.0 | 10.0 | 0.00 | 0.00 | 0.00 | 38 | 1011.1 |
| 20260507142003 | 75 | 250 | 3.0 | 8.0 | 0.00 | 0.00 | 0.00 | 38 | 1011.1 |
| 20260507141502 | 75 | 252 | 4.0 | 9.0 | 0.00 | 0.00 | 0.00 | 38 | 1011.1 |
| 20260507141003 | 75 | 250 | 5.0 | 10.0 | 0.00 | 0.00 | 0.00 | 38 | 1011.1 |
| 20260507140502 | 74 | 240 | 4.0 | 8.0 | 0.00 | 0.00 | 0.00 | 38 | 1011.0 |
| 20260507140002 | 74 | 241 | 5.0 | 8.0 | 0.00 | 0.00 | 0.00 | 39 | 1010.9 |
| 20260507135503 | 74 | 251 | 6.0 | 10.0 | 0.00 | 0.00 | 0.00 | 40 | 1010.9 |
| 20260507135003 | 74 | 249 | 6.0 | 7.0 | 0.00 | 0.00 | 0.00 | 39 | 1010.9 |
| 20260507134503 | 74 | 247 | 6.0 | 12.0 | 0.00 | 0.00 | 0.00 | 39 | 1010.8 |
| 20260507133502 | 74 | 254 | 5.0 | 12.0 | 0.00 | 0.00 | 0.00 | 40 | 1010.7 |
| 20260507133002 | 74 | 268 | 6.0 | 12.0 | 0.00 | 0.00 | 0.00 | 40 | 1010.7 |
| 20260507132503 | 74 | 268 | 7.0 | 12.0 | 0.00 | 0.00 | 0.00 | 40 | 1010.6 |
| 20260507132002 | 74 | 264 | 5.0 | 8.0 | 0.00 | 0.00 | 0.00 | 40 | 1010.6 |
| 20260507131503 | 74 | 266 | 6.0 | 9.0 | 0.00 | 0.00 | 0.00 | 40 | 1010.6 |
| 20260507131003 | 75 | 255 | 6.0 | 12.0 | 0.00 | 0.00 | 0.00 | 39 | 1010.5 |
| 20260507130503 | 75 | 263 | 5.0 | 10.0 | 0.00 | 0.00 | 0.00 | 39 | 1010.4 |
| 20260507130003 | 75 | 278 | 5.0 | 13.0 | 0.00 | 0.00 | 0.00 | 38 | 1010.3 |
| 20260507125502 | 75 | 269 | 7.0 | 14.0 | 0.00 | 0.00 | 0.00 | 38 | 1010.2 |
| 20260507125003 | 75 | 271 | 8.0 | 16.0 | 0.00 | 0.00 | 0.00 | 38 | 1010.2 |
| 20260507124503 | 75 | 282 | 6.0 | 12.0 | 0.00 | 0.00 | 0.00 | 37 | 1010.2 |
| 20260507123504 | 75 | 279 | 8.0 | 15.0 | 0.00 | 0.00 | 0.00 | 37 | 1009.9 |
| 20260507123003 | 75 | 277 | 7.0 | 15.0 | 0.00 | 0.00 | 0.00 | 38 | 1010.0 |
| 20260507122503 | 75 | 285 | 9.0 | 16.0 | 0.00 | 0.00 | 0.00 | 38 | 1010.0 |
| 20260507121503 | 74 | 282 | 10.0 | 18.0 | 0.00 | 0.00 | 0.00 | 40 | 1010.0 |
| 20260507121003 | 73 | 276 | 9.0 | 17.0 | 0.00 | 0.00 | 0.00 | 41 | 1010.0 |
| 20260507120502 | 73 | 272 | 9.0 | 16.0 | 0.00 | 0.00 | 0.00 | 41 | 1010.1 |
| 20260507120004 | 73 | 268 | 9.0 | 17.0 | 0.00 | 0.00 | 0.00 | 40 | 1010.2 |
| 20260507115503 | 73 | 255 | 9.0 | 20.0 | 0.00 | 0.00 | 0.00 | 41 | 1010.2 |
| 20260507115003 | 74 | 268 | 10.0 | 18.0 | 0.00 | 0.00 | 0.00 | 40 | 1010.2 |
| 20260507114503 | 74 | 271 | 9.0 | 16.0 | 0.00 | 0.00 | 0.00 | 38 | 1010.2 |
| 20260507114003 | 74 | 271 | 10.0 | 17.0 | 0.00 | 0.00 | 0.00 | 38 | 1010.2 |
| 20260507113503 | 74 | 270 | 10.0 | 18.0 | 0.00 | 0.00 | 0.00 | 38 | 1010.2 |
| 20260507113003 | 74 | 269 | 10.0 | 18.0 | 0.00 | 0.00 | 0.00 | 38 | 1010.2 |
| 20260507112503 | 74 | 273 | 11.0 | 20.0 | 0.00 | 0.00 | 0.00 | 39 | 1010.1 |
| 20260507112003 | 74 | 280 | 11.0 | 17.0 | 0.00 | 0.00 | 0.00 | 40 | 1010.1 |
| 20260507111003 | 74 | 276 | 12.0 | 21.0 | 0.00 | 0.00 | 0.00 | 41 | 1010.2 |
| 20260507110503 | 73 | 279 | 10.0 | 20.0 | 0.00 | 0.00 | 0.00 | 42 | 1010.2 |
| 20260507110003 | 73 | 281 | 11.0 | 21.0 | 0.00 | 0.00 | 0.00 | 43 | 1010.2 |
| 20260507105503 | 73 | 257 | 10.0 | 18.0 | 0.00 | 0.00 | 0.00 | 43 | 1010.3 |
| 20260507105003 | 73 | 289 | 9.0 | 16.0 | 0.00 | 0.00 | 0.00 | 44 | 1010.3 |
| 20260507104502 | 73 | 259 | 10.0 | 20.0 | 0.00 | 0.00 | 0.00 | 45 | 1010.4 |
| 20260507104003 | 73 | 284 | 9.0 | 17.0 | 0.00 | 0.00 | 0.00 | 45 | 1010.5 |
| 20260507103503 | 73 | 291 | 9.0 | 16.0 | 0.00 | 0.00 | 0.00 | 45 | 1010.7 |
| 20260507103004 | 72 | 292 | 8.0 | 15.0 | 0.00 | 0.00 | 0.00 | 45 | 1010.7 |
| 20260507102003 | 72 | 282 | 5.0 | 12.0 | 0.00 | 0.00 | 0.00 | 46 | 1010.8 |
| 20260507101503 | 72 | 285 | 7.0 | 14.0 | 0.00 | 0.00 | 0.00 | 46 | 1010.8 |
| 20260507101003 | 72 | 291 | 7.0 | 18.0 | 0.00 | 0.00 | 0.00 | 45 | 1010.8 |
| 20260507100502 | 73 | 285 | 4.0 | 13.0 | 0.00 | 0.00 | 0.00 | 44 | 1010.8 |
| 20260507100003 | 73 | 263 | 6.0 | 17.0 | 0.00 | 0.00 | 0.00 | 44 | 1010.8 |
| 20260507095003 | 73 | 291 | 6.0 | 10.0 | 0.00 | 0.00 | 0.00 | 45 | 1010.9 |
| 20260507094503 | 73 | 286 | 6.0 | 12.0 | 0.00 | 0.00 | 0.00 | 45 | 1010.9 |
| 20260507094003 | 73 | 268 | 8.0 | 13.0 | 0.00 | 0.00 | 0.00 | 44 | 1010.9 |
| 20260507093503 | 73 | 264 | 8.0 | 13.0 | 0.00 | 0.00 | 0.00 | 44 | 1010.9 |
| 20260507093004 | 72 | 292 | 7.0 | 12.0 | 0.00 | 0.00 | 0.00 | 45 | 1010.9 |
| 20260507092503 | 72 | 270 | 5.0 | 12.0 | 0.00 | 0.00 | 0.00 | 45 | 1010.9 |
| 20260507092003 | 72 | 279 | 6.0 | 13.0 | 0.00 | 0.00 | 0.00 | 44 | 1010.9 |
| 20260507091503 | 72 | 295 | 7.0 | 12.0 | 0.00 | 0.00 | 0.00 | 45 | 1011.0 |
| 20260507091003 | 72 | 280 | 5.0 | 10.0 | 0.00 | 0.00 | 0.00 | 45 | 1011.2 |
| 20260507090003 | 73 | 260 | 5.0 | 8.0 | 0.00 | 0.00 | 0.00 | 44 | 1011.3 |
| 20260507085503 | 73 | 260 | 4.0 | 10.0 | 0.00 | 0.00 | 0.00 | 43 | 1011.3 |
| 20260507085003 | 72 | 281 | 4.0 | 12.0 | 0.00 | 0.00 | 0.00 | 44 | 1011.3 |
| 20260507084504 | 72 | 258 | 4.0 | 8.0 | 0.00 | 0.00 | 0.00 | 45 | 1011.4 |
| 20260507083502 | 73 | 284 | 5.0 | 8.0 | 0.00 | 0.00 | 0.00 | 44 | 1011.4 |
| 20260507083003 | 73 | 283 | 3.0 | 10.0 | 0.00 | 0.00 | 0.00 | 43 | 1011.4 |
| 20260507082503 | 73 | 289 | 5.0 | 9.0 | 0.00 | 0.00 | 0.00 | 44 | 1011.4 |
| 20260507082003 | 74 | 285 | 6.0 | 12.0 | 0.00 | 0.00 | 0.00 | 43 | 1011.4 |
| 20260507081503 | 74 | 293 | 5.0 | 15.0 | 0.00 | 0.00 | 0.00 | 42 | 1011.4 |
| 20260507081003 | 73 | 313 | 5.0 | 10.0 | 0.00 | 0.00 | 0.00 | 44 | 1011.5 |
| 20260507080503 | 73 | 300 | 2.0 | 7.0 | 0.00 | 0.00 | 0.00 | 44 | 1011.8 |
| 20260507080003 | 73 | 290 | 3.0 | 8.0 | 0.00 | 0.00 | 0.00 | 44 | 1011.8 |
| 20260507075503 | 73 | 285 | 5.0 | 9.0 | 0.00 | 0.00 | 0.00 | 44 | 1011.8 |
| 20260507075003 | 73 | 280 | 5.0 | 10.0 | 0.00 | 0.00 | 0.00 | 44 | 1011.7 |
| 20260507074503 | 73 | 297 | 6.0 | 12.0 | 0.00 | 0.00 | 0.00 | 44 | 1011.7 |
| 20260507074003 | 73 | 302 | 5.0 | 9.0 | 0.00 | 0.00 | 0.00 | 44 | 1011.7 |
| 20260507073503 | 73 | 277 | 5.0 | 10.0 | 0.00 | 0.00 | 0.00 | 44 | 1011.8 |
| 20260507073003 | 73 | 292 | 3.0 | 9.0 | 0.00 | 0.00 | 0.00 | 44 | 1011.8 |
| 20260507072503 | 73 | 291 | 4.0 | 10.0 | 0.00 | 0.00 | 0.00 | 45 | 1011.8 |
| 20260507072003 | 73 | 308 | 2.0 | 8.0 | 0.00 | 0.00 | 0.00 | 45 | 1011.8 |
| 20260507071503 | 74 | 316 | 5.0 | 10.0 | 0.00 | 0.00 | 0.00 | 45 | 1011.8 |
| 20260507071003 | 74 | 298 | 6.0 | 10.0 | 0.00 | 0.00 | 0.00 | 44 | 1011.8 |
| 20260507070503 | 74 | 299 | 8.0 | 15.0 | 0.00 | 0.00 | 0.00 | 44 | 1011.8 |
| 20260507070004 | 74 | 279 | 9.0 | 16.0 | 0.00 | 0.00 | 0.00 | 44 | 1011.8 |
| 20260507065503 | 75 | 287 | 9.0 | 13.0 | 0.00 | 0.00 | 0.00 | 44 | 1011.9 |
| 20260507064503 | 75 | 289 | 8.0 | 18.0 | 0.00 | 0.00 | 0.00 | 44 | 1011.9 |
| 20260507064004 | 75 | 282 | 9.0 | 16.0 | 0.00 | 0.00 | 0.00 | 44 | 1011.9 |
| 20260507063003 | 75 | 287 | 4.0 | 12.0 | 0.00 | 0.00 | 0.00 | 44 | 1011.9 |
| 20260507062503 | 75 | 291 | 5.0 | 12.0 | 0.00 | 0.00 | 0.00 | 44 | 1011.9 |
| 20260507062002 | 75 | 302 | 4.0 | 9.0 | 0.00 | 0.00 | 0.00 | 44 | 1011.9 |
| 20260507061504 | 75 | 322 | 3.0 | 8.0 | 0.00 | 0.00 | 0.00 | 43 | 1011.8 |
| 20260507061003 | 75 | 308 | 3.0 | 8.0 | 0.00 | 0.00 | 0.00 | 43 | 1011.9 |
| 20260507060503 | 75 | 297 | 5.0 | 10.0 | 0.00 | 0.00 | 0.00 | 43 | 1011.9 |
| 20260507060003 | 75 | 299 | 5.0 | 10.0 | 0.00 | 0.00 | 0.00 | 43 | 1011.9 |
| 20260507055502 | 75 | 296 | 5.0 | 10.0 | 0.00 | 0.00 | 0.00 | 43 | 1011.9 |
| 20260507055003 | 76 | 304 | 5.0 | 10.0 | 0.00 | 0.00 | 0.00 | 42 | 1012.0 |
| 20260507054503 | 76 | 287 | 5.0 | 8.0 | 0.00 | 0.00 | 0.00 | 42 | 1012.0 |
| 20260507053003 | 76 | 295 | 5.0 | 12.0 | 0.00 | 0.00 | 0.00 | 41 | 1011.9 |
| 20260507052503 | 76 | 300 | 6.0 | 10.0 | 0.00 | 0.00 | 0.00 | 40 | 1011.9 |
| 20260507052003 | 77 | 288 | 4.0 | 9.0 | 0.00 | 0.00 | 0.00 | 40 | 1011.9 |
| 20260507051503 | 77 | 293 | 6.0 | 10.0 | 0.00 | 0.00 | 0.00 | 39 | 1011.9 |
| 20260507051003 | 77 | 279 | 4.0 | 6.0 | 0.00 | 0.00 | 0.00 | 39 | 1011.9 |
| 20260507050003 | 76 | 344 | 2.0 | 3.0 | 0.00 | 0.00 | 0.00 | 41 | 1011.9 |
| 20260507045504 | 76 | 1 | 3.0 | 5.0 | 0.00 | 0.00 | 0.00 | 40 | 1011.9 |
| 20260507045003 | 77 | 17 | 3.0 | 5.0 | 0.00 | 0.00 | 0.00 | 38 | 1011.9 |
| 20260507044503 | 78 | 356 | 2.0 | 5.0 | 0.00 | 0.00 | 0.00 | 36 | 1011.9 |
| 20260507044002 | 78 | 46 | 1.0 | 3.0 | 0.00 | 0.00 | 0.00 | 34 | 1011.9 |
| 20260507043503 | 79 | 90 | 1.0 | 3.0 | 0.00 | 0.00 | 0.00 | 32 | 1011.9 |
| 20260507042003 | 78 | 55 | 1.0 | 2.0 | 0.00 | 0.00 | 0.00 | 29 | 1011.8 |
| 20260507041503 | 77 | 46 | 3.0 | 3.0 | 0.00 | 0.00 | 0.00 | 29 | 1011.8 |
| 20260507041002 | 78 | 45 | 3.0 | 5.0 | 0.00 | 0.00 | 0.00 | 28 | 1011.7 |
| 20260507040504 | 78 | 32 | 3.0 | 5.0 | 0.00 | 0.00 | 0.00 | 28 | 1011.6 |
| 20260507040003 | 78 | 22 | 1.0 | 5.0 | 0.00 | 0.00 | 0.00 | 28 | 1011.5 |
| 20260507035003 | 79 | 63 | 2.0 | 5.0 | 0.00 | 0.00 | 0.00 | 28 | 1011.4 |
| 20260507034003 | 79 | 55 | 2.0 | 3.0 | 0.00 | 0.00 | 0.00 | 27 | 1011.3 |
| 20260507033503 | 79 | 53 | 2.0 | 5.0 | 0.00 | 0.00 | 0.00 | 27 | 1011.3 |
| 20260507033004 | 79 | 66 | 5.0 | 8.0 | 0.00 | 0.00 | 0.00 | 27 | 1011.3 |
| 20260507032503 | 80 | 71 | 5.0 | 7.0 | 0.00 | 0.00 | 0.00 | 27 | 1011.2 |
| 20260507032003 | 80 | 66 | 3.0 | 6.0 | 0.00 | 0.00 | 0.00 | 29 | 1011.2 |
| 20260507031503 | 81 | 82 | 6.0 | 9.0 | 0.00 | 0.00 | 0.00 | 26 | 1011.0 |
| 20260507031003 | 81 | 83 | 7.0 | 9.0 | 0.00 | 0.00 | 0.00 | 26 | 1010.9 |
| 20260507030503 | 81 | 86 | 3.0 | 6.0 | 0.00 | 0.00 | 0.00 | 26 | 1010.8 |
| 20260507030004 | 81 | 80 | 2.0 | 7.0 | 0.00 | 0.00 | 0.00 | 26 | 1010.8 |
| 20260507025503 | 82 | 81 | 2.0 | 6.0 | 0.00 | 0.00 | 0.00 | 26 | 1010.8 |
| 20260507025003 | 82 | 93 | 5.0 | 7.0 | 0.00 | 0.00 | 0.00 | 26 | 1010.7 |
| 20260507024503 | 82 | 98 | 2.0 | 5.0 | 0.00 | 0.00 | 0.00 | 25 | 1010.7 |
| 20260507024003 | 82 | 90 | 3.0 | 6.0 | 0.00 | 0.00 | 0.00 | 25 | 1010.5 |
| 20260507023503 | 83 | 95 | 6.0 | 8.0 | 0.00 | 0.00 | 0.00 | 25 | 1010.4 |
| 20260507023003 | 83 | 84 | 5.0 | 8.0 | 0.00 | 0.00 | 0.00 | 25 | 1010.3 |
| 20260507022503 | 83 | 81 | 5.0 | 8.0 | 0.00 | 0.00 | 0.00 | 25 | 1010.3 |
| 20260507022003 | 84 | 89 | 5.0 | 9.0 | 0.00 | 0.00 | 0.00 | 24 | 1010.3 |
| 20260507020502 | 85 | 116 | 7.0 | 10.0 | 0.00 | 0.00 | 0.00 | 24 | 1010.2 |
| 20260507020003 | 85 | 115 | 6.0 | 10.0 | 0.00 | 0.00 | 0.00 | 24 | 1010.1 |
| 20260507015503 | 85 | 102 | 7.0 | 10.0 | 0.00 | 0.00 | 0.00 | 23 | 1010.0 |
| 20260507015002 | 86 | 106 | 7.0 | 9.0 | 0.00 | 0.00 | 0.00 | 23 | 1009.9 |
| 20260507014002 | 87 | 113 | 6.0 | 10.0 | 0.00 | 0.00 | 0.00 | 23 | 1009.9 |
| 20260507013503 | 87 | 125 | 6.0 | 10.0 | 0.00 | 0.00 | 0.00 | 22 | 1009.8 |
| 20260507013004 | 87 | 117 | 6.0 | 12.0 | 0.00 | 0.00 | 0.00 | 22 | 1009.8 |
| 20260507012503 | 87 | 129 | 7.0 | 12.0 | 0.00 | 0.00 | 0.00 | 22 | 1009.8 |
| 20260507011502 | 88 | 119 | 6.0 | 12.0 | 0.00 | 0.00 | 0.00 | 21 | 1009.9 |
| 20260507011002 | 88 | 112 | 8.0 | 12.0 | 0.00 | 0.00 | 0.00 | 21 | 1010.0 |
| 20260507010504 | 89 | 111 | 5.0 | 8.0 | 0.00 | 0.00 | 0.00 | 21 | 1010.0 |
| 20260507010003 | 88 | 113 | 7.0 | 10.0 | 0.00 | 0.00 | 0.00 | 21 | 1010.0 |
| 20260507005503 | 89 | 122 | 5.0 | 12.0 | 0.00 | 0.00 | 0.00 | 21 | 1009.9 |
| 20260507005003 | 89 | 99 | 6.0 | 10.0 | 0.00 | 0.00 | 0.00 | 20 | 1009.9 |
| 20260507004503 | 89 | 95 | 7.0 | 12.0 | 0.00 | 0.00 | 0.00 | 21 | 1009.9 |
| 20260507004003 | 89 | 77 | 6.0 | 12.0 | 0.00 | 0.00 | 0.00 | 21 | 1009.9 |
| 20260507003503 | 89 | 118 | 7.0 | 9.0 | 0.00 | 0.00 | 0.00 | 20 | 1009.9 |
| 20260507003003 | 90 | 100 | 6.0 | 12.0 | 0.00 | 0.00 | 0.00 | 21 | 1009.8 |
| 20260507002003 | 90 | 86 | 5.0 | 8.0 | 0.00 | 0.00 | 0.00 | 21 | 1009.8 |
| 20260507001503 | 90 | 94 | 3.0 | 7.0 | 0.00 | 0.00 | 0.00 | 20 | 1009.8 |
| 20260507001003 | 89 | 75 | 6.0 | 12.0 | 0.00 | 0.00 | 0.00 | 20 | 1009.8 |
| 20260507000503 | 89 | 140 | 5.0 | 12.0 | 0.00 | 0.00 | 0.00 | 21 | 1009.8 |
| 20260507000003 | 88 | 131 | 4.0 | 9.0 | 0.00 | 0.00 | 0.00 | 21 | 1009.8 |
| 20260506235503 | 88 | 165 | 2.0 | 5.0 | 0.00 | 0.00 | 0.00 | 20 | 1009.8 |
| 20260506235003 | 89 | 162 | 3.0 | 9.0 | 0.00 | 0.00 | 0.00 | 20 | 1009.8 |
| 20260506234503 | 89 | 116 | 5.0 | 9.0 | 0.00 | 0.00 | 0.00 | 20 | 1009.8 |
| 20260506234003 | 89 | 99 | 6.0 | 9.0 | 0.00 | 0.00 | 0.00 | 21 | 1009.8 |
| 20260506233502 | 90 | 147 | 3.0 | 8.0 | 0.00 | 0.00 | 0.00 | 20 | 1009.8 |
| 20260506233003 | 90 | 102 | 2.0 | 8.0 | 0.00 | 0.00 | 0.00 | 20 | 1009.8 |